Weather in Klimushino

Russia / Vologda Oblast     60°48′37″N   42°06′07″E
temp.,
°C
wind,
m/s
gust,
m/s
humid.,
%
clouds,
%
prec.,
mm/h
press.,
hPa
HPBL,
m
7 may, fri
fri700:00+10s61486100 0.0 9981005
03:00+7sw41189100 1.1 1001942
06:00+6ssw41082100 0.0 1003843
09:00+7ssw4980100 0.1 10051206
12:00+9ssw4869100 0.3 10051264
15:00+9sw5870100 1.4 10061282
18:00+9sw4972100 0.9 10071174
21:00+4ssw310925 1.1 1009247
8 may, sat
sat800:00+3ssw310925 0.0 1011248
03:00+2s28955 0.0 1012158
06:00+5s31085100 0.0 1012308
09:00+10sse41165100 0.0 1011710
12:00+13sse51253100 0.1 10102106
15:00+13sse51351100 0.1 10082197
18:00+10sse51368100 0.3 10071510
21:00+8se41389100 2.2 10051417
9 may, sun
sun900:00+8se41393100 1.9 1001987
03:00+8se41296100 3.4 999824
06:00+9s71487100 1.9 9981193
09:00+6s71181100 2.3 9991333
12:00+4ssw71396100 0.1 1003826
15:00+2sw51397100 1.1 1008760
18:00+5w41186100 0.9 10141115
21:00+3sw39914 0.9 1017234
10 may, mon
mon1000:00+1sw310934 0.0 1020216
03:00+1sw28945 0.0 1022148
06:00+3ssw311835 0.0 1023360
09:00+9sw486463 0.0 1023798
12:00+11sw5958100 0.4 10241640
15:00+13sw594988 0.4 10231909
18:00+9sw4976100 0.0 1024891
21:00+8sw41184100 0.0 1025498
11 may, tue
tue1100:00+7ssw41392100 0.0 1024383
03:00+8sw4149189 0.0 1024406
06:00+10sw41485100 0.0 1025534
09:00+14sw51369100 0.0 1024670
12:00+19wsw61051100 0.0 10241249
15:00+21wsw694627 0.0 10241528
18:00+19wsw5105619 0.0 10251362
21:00+13sw31082100 0.0 1025261